[Iaude] MPEC A134: 2019 AN6 [a=1.36,e=0.18,i=18.9,H=23.0]

mpec at mpcdb1.cfa.harvard.edu mpec at mpcdb1.cfa.harvard.edu
Wed Jan 9 10:27:18 EST 2019


M.P.E.C. 2019-A134                               Issued 2019 Jan.  9, 15:23 UT
 
     The Minor Planet Electronic Circulars contain information on unusual
         minor planets and routine data on comets.  They are published
    on behalf of Division F of the International Astronomical Union by the
          Minor Planet Center, Smithsonian Astrophysical Observatory,
                          Cambridge, MA 02138, U.S.A.

             Prepared using the Tamkin Foundation Computer Network

                              MPC at CFA.HARVARD.EDU
            URL https://www.minorplanetcenter.net/    ISSN 1523-6714


                                   2019 AN6
 
Observations:
     K19A06N* C2019 01 06.48567 08 19 48.414+50 27 39.87         20.1 wUEA134F51
     K19A06N  C2019 01 06.49855 08 19 44.577+50 26 25.48         20.4 wUEA134F51
     K19A06N  C2019 01 06.51142 08 19 40.764+50 25 10.91         20.3 wUEA134F51
     K19A06N KC2019 01 06.85063708 18 16.75 +49 51 36.4          20.1 GVEA134L01
     K19A06N IC2019 01 06.85149908 18 16.52 +49 51 31.4          21.2 GVEA134L01
     K19A06N IC2019 01 06.85666808 18 15.06 +49 51 01.9          21.2 GVEA134L01
     K19A06N KC2019 01 06.85752708 18 14.90 +49 50 56.8          20.2 GVEA134L01
     K19A06N KC2019 01 06.91249 08 17 59.90 +49 45 40.3          19.5  VEA134104
     K19A06N KC2019 01 06.91808 08 17 58.27 +49 45 08.6          20.1  VEA134104
     K19A06N KC2019 01 06.92367 08 17 56.66 +49 44 36.4          20.0  VEA134104
     K19A06N KC2019 01 06.93409 08 17 53.83 +49 43 33.7          19.9 GVEA134203
     K19A06N KC2019 01 06.96435 08 17 45.21 +49 40 37.2          19.7 GVEA134203
     K19A06N KC2019 01 07.82985 08 14 03.56 +48 12 45.0          19.2 RVEA134K51
     K19A06N KC2019 01 07.83224 08 14 02.96 +48 12 30.3          19.1 RVEA134K51
     K19A06N KC2019 01 07.83463 08 14 02.31 +48 12 15.7          19.2 RVEA134K51
     K19A06N KC2019 01 07.93853 08 13 33.98 +48 01 43.4          20.9 RVEA134K63
     K19A06N KC2019 01 07.94214 08 13 32.91 +48 01 20.9          20.1 RVEA134K63
     K19A06N KC2019 01 07.95966 08 13 27.97 +47 59 32.4          20.0 RVEA134K63
     K19A06N  C2019 01 08.28812 08 12 04.36 +47 25 06.6          20.1 GVEA134I52
     K19A06N  C2019 01 08.28936 08 12 04.02 +47 24 58.3          19.9 GVEA134I52
     K19A06N  C2019 01 08.29061 08 12 03.70 +47 24 50.1          19.5 GVEA134I52
     K19A06N  C2019 01 08.29186 08 12 03.30 +47 24 42.9          19.6 GVEA134I52
     K19A06N KC2019 01 09.05969308 08 46.42 +46 01 04.1          19.9 GVEA134J95
     K19A06N KC2019 01 09.06583408 08 44.67 +46 00 22.9          19.9 GVEA134J95
     K19A06N KC2019 01 09.07198908 08 43.05 +45 59 42.4          20.2 GVEA134J95
     K19A06N KC2019 01 09.07435 08 08 41.60 +45 59 30.7                VEA134204
     K19A06N KC2019 01 09.08444 08 08 38.82 +45 58 23.0                VEA134204
     K19A06N KC2019 01 09.09449 08 08 36.07 +45 57 15.4          19.9 GVEA134204
     K19A06N  C2019 01 09.19819 08 08 15.83 +45 45 46.2          20.0 GVEA134I52
     K19A06N  C2019 01 09.19860 08 08 15.75 +45 45 43.3          20.0 GVEA134I52
     K19A06N  C2019 01 09.19902 08 08 15.64 +45 45 40.9          19.8 GVEA134I52
     K19A06N  C2019 01 09.33048 08 07 39.20 +45 31 12.9          19.9 GVEA134G96
     K19A06N  C2019 01 09.33628 08 07 37.57 +45 30 33.5          19.9 GVEA134G96
     K19A06N  C2019 01 09.34251 08 07 35.81 +45 29 51.4          19.9 GVEA134G96
     K19A06N  C2019 01 09.34854 08 07 34.09 +45 29 11.1          19.9 GVEA134G96
 
Observer details:
104 San Marcello Pistoiese.  Observers P. Bacci, M. Maestripieri.  Measurers
    P. Bacci, L. Tesi, G. Fagioli.  0.60-m reflector + CCD.
203 GiaGa Observatory.  Observers S. Foglia, G. Galli.  Measurer G. Galli.
    0.36-m f/7.50 Schmidt-Cassegrain + CCD.
204 Schiaparelli Observatory.  Observer L. Buzzi.  0.84-m f/3.5 reflector +
    CCD.
F51 Pan-STARRS 1, Haleakala.  Observers J. Bulger, T. Lowe, A. Schultz,
    M. Willman.  Measurers K. Chambers, S. Chastel, L. Denneau, J. Fairlamb,
    H. Flewelling, M. Huber, C.-C. Lin, E. Magnier, Y. Ramanjooloo,
    R. Wainscoat, R. Weryk.  1.8-m Ritchey-Chretien + CCD.
G96 Mt. Lemmon Survey.  Observer A. D. Grauer.  Measurers B. M. Africano,
    E. J. Christensen, G. A. Farneth, D. C. Fuls, A. R. Gibbs, A. D. Grauer,
    H. Groeller, R. A. Kowalski, S. M. Larson, G. J. Leonard, R. L. Seaman,
    F. C. Shelly.  1.5-m reflector + 10K CCD.
I52 Steward Observatory, Mt. Lemmon Station.  Observer A. R. Gibbs.
    Measurers B. M. Africano, E. J. Christensen, G. A. Farneth, D. C. Fuls,
    A. R. Gibbs, A. D. Grauer, H. Groeller, R. A. Kowalski, S. M. Larson,
    G. J. Leonard, R. L. Seaman, F. C. Shelly.  1.0-m reflector + CCD.
J95 Great Shefford.  Observer P. Birtwhistle.  0.41-m f/6.3
    Schmidt-Cassegrain + CCD.
K51 Osservatorio del Celado, Castello Tesino.  Observers G. Favero,
    R. Furgoni.  Measurer R. Furgoni.  0.80-m f/4 reflector + CCD.
K63 G. Pascoli Observatory, Castelvecchio Pascoli.  Observer R. Bacci.
    0.41-m f/3.2 Newtonian reflector + CCD.
L01 Visnjan Observatory, Tican.  Observer K. Korlevic.  1.0-m f/2.9 reflector
    + CCD.
 
Orbital elements:
2019 AN6                                                 Earth MOID = 0.1307 AU
Epoch 2019 Apr. 27.0 TT = JDT 2458600.5                 MPC
M  61.50157              (2000.0)            P               Q
n   0.61974648     Peri.  178.08025     -0.44496557     -0.84882625
a   1.3624691      Node   298.23905     +0.81727047     -0.25454851
e   0.1822659      Incl.   18.90799     +0.36616201     -0.46335629
P   1.59           H   23.0           G   0.15           U   7
Residuals in seconds of arc
190106 F51  0.1+  0.1+    190107 K51  0.5-  0.3+    190109 J95  0.3+  0.2+
190106 F51  0.1-  0.0     190107 K51  0.1-  0.1+    190109 204  0.0   0.0
190106 F51  0.0   0.0     190107 K51  0.2-  0.1-    190109 204  0.0   0.2+
190106 L01  0.3-  0.1-    190107 K63  0.5+  0.5+    190109 204  0.1+  0.3+
190106 L01  0.3-  0.2-    190107 K63  0.1-  0.2+    190109 I52  0.4-  0.1+
190106 L01  0.7-  0.1-    190107 K63  0.2-  0.1+    190109 I52  0.0   0.1-
190106 L01  0.1+  0.3-    190108 I52  0.1-  0.3+    190109 I52  0.0   0.2+
190106 104  0.8+  0.6-    190108 I52  0.0   0.1-    190109 G96  0.0   0.4+
190106 104  0.3+  0.0     190108 I52  0.4+  0.5-    190109 G96  0.0   0.0
190106 104  0.0   0.2+    190108 I52  0.1-  0.2+    190109 G96  0.1-  0.2-
190106 203  0.6+  0.2-    190109 J95  0.2+  0.1-    190109 G96  0.3-  0.1+
190106 203  0.1+  0.3-    190109 J95  0.4-  0.4-

Ephemeris:
2019 AN6                 a,e,i = 1.36, 0.18, 19                  q = 1.1141
Date    TT    R. A. (2000) Decl.     Delta      r     Elong.  Phase     V
2018 12 10    09 42 08.8 +70 26 22   0.2805  1.1454   118.5    49.1    22.4
...
2018 12 25    09 11 44.0 +64 01 53   0.2050  1.1261   130.0    42.0    21.5
...
2019 01 02    08 39 29.4 +56 42 21   0.1694  1.1194   140.6    33.9    20.8
...
2019 01 08    08 13 16.4 +47 55 22   0.1482  1.1161   151.8    24.6    20.2
2019 01 09    08 09 02.0 +46 07 51   0.1453  1.1157   154.0    22.7    20.1
2019 01 10    08 04 52.3 +44 14 40   0.1426  1.1154   156.2    20.8    20.0
...
2019 01 16    07 42 08.5 +31 12 02   0.1324  1.1142   169.8     9.0    19.5
...
2019 01 24    07 19 19.4 +12 04 41   0.1359  1.1149   163.1    14.9    19.7
...
2019 02 08    06 58 43.5 -13 07 05   0.1859  1.1238   134.2    39.0    21.2

A. U. Tomatic                (C) Copyright 2019 MPC           M.P.E.C. 2019-A134



More information about the Iaude mailing list